This is the latest recevied weather packets stored in our database for station/object KB3KBR-WX. If no packets are shown the sender has not sent any weather packets the latest 10 day(s).
| Time | Temp. | Humidity | Pressure | Rain* | Wind** | Luminosity | Snow |
|---|---|---|---|---|---|---|---|
| 1787519394 | 20° C | 65% | 1009.7 hPa | 0 mm | - | - | - |
| 1787519065 | 20° C | 66% | 1009.7 hPa | 0 mm | - | - | - |
| 1787518765 | 20° C | 69% | 1009.7 hPa | 0 mm | - | - | - |
| 1787518435 | 20° C | 69% | 1009.7 hPa | 0 mm | - | - | - |
| 1787518134 | 20.56° C | 69% | 1009.8 hPa | 0 mm | - | - | - |
| 1787517805 | 21.11° C | 66% | 1009.6 hPa | 0 mm | - | - | - |
| 1787517475 | 21.67° C | 65% | 1009.5 hPa | 0 mm | - | - | - |
| 1787517175 | 21.67° C | 65% | 1009.5 hPa | 0 mm | - | - | - |
| 1787516844 | 21.67° C | 64% | 1009.6 hPa | 0 mm | - | - | - |
| 1787516515 | 21.67° C | 69% | 1009.6 hPa | 0 mm | - | - | - |
| 1787516214 | 21.11° C | 67% | 1009.6 hPa | 0 mm | - | - | - |
| 1787515915 | 21.67° C | 67% | 1009.5 hPa | 0 mm | - | - | - |
| 1787515585 | 21.11° C | 69% | 1009.5 hPa | 0 mm | - | - | - |
| 1787515285 | 21.11° C | 66% | 1009.4 hPa | 0 mm | - | - | - |
| 1787514955 | 21.11° C | 68% | 1009.5 hPa | 0 mm | - | - | - |
| 1787514625 | 21.67° C | 63% | 1009.6 hPa | 0 mm | - | - | - |
| 1787514294 | 21.67° C | 64% | 1009.4 hPa | 0 mm | - | - | - |
| 1787513995 | 21.67° C | 70% | 1009.3 hPa | 0 mm | - | - | - |
| 1787513665 | 21.11° C | 69% | 1009.3 hPa | 0 mm | - | - | - |
| 1787513365 | 21.11° C | 71% | 1009.3 hPa | 0 mm | - | - | - |
| 1787513065 | 20.56° C | 72% | 1009.3 hPa | 0 mm | - | - | - |
| 1787512734 | 20° C | 79% | 1009.2 hPa | 0 mm | - | - | - |
| 1787512404 | 19.44° C | 80% | 1009.2 hPa | 0 mm | - | - | - |
| 1787511774 | 19.44° C | 86% | 1009.3 hPa | 0 mm | - | - | - |
| 1787511475 | 18.89° C | 87% | 1009.4 hPa | 0 mm | - | - | - |
* Rain latest hour (hover to see other rain measurements)
** Current wind speed in m/s (hover to see current wind gust speed)